• In Hungary
  • List of Countries
  • For 7 days
  • Water Temperature
  • Satellite Maps
  • Weather Map
  • News
  • Weather Widgets
  • user-avatar
    Login

    Hourly Weather Aqtobe

    Today, 19 October, Friday

    Time Temperature Precipitation Wind Pressure Humidity
    00:00 +5°C° 0 mm 3 mps 746 mmHg 63%
    01:00 +4°C° 0 mm 3 mps 746 mmHg 66%
    02:00 +4°C° 0 mm 3 mps 746 mmHg 68%
    03:00 +4°C° 0 mm 3 mps 746 mmHg 71%
    04:00 +3°C° 0 mm 3 mps 746 mmHg 75%
    05:00 +3°C° 0 mm 3 mps 746 mmHg 75%
    06:00 +3°C° 0 mm 3 mps 746 mmHg 76%
    07:00 +3°C° 0 mm 3 mps 746 mmHg 76%
    08:00 +4°C° 0 mm 4 mps 747 mmHg 67%
    09:00 +6°C° 0 mm 5 mps 747 mmHg 58%
    10:00 +8°C° 0 mm 6 mps 747 mmHg 49%
    11:00 +9°C° 0 mm 6 mps 747 mmHg 45%
    12:00 +10°C° 0 mm 7 mps 746 mmHg 41%
    13:00 +12°C° 0 mm 7 mps 746 mmHg 37%
    14:00 +12°C° 0 mm 7 mps 746 mmHg 37%
    15:00 +12°C° 0 mm 7 mps 746 mmHg 38%
    16:00 +12°C° 0 mm 7 mps 746 mmHg 38%
    17:00 +11°C° 0 mm 6 mps 746 mmHg 41%
    18:00 +10°C° 0 mm 6 mps 746 mmHg 44%
    19:00 +9°C° 0 mm 5 mps 746 mmHg 46%
    20:00 +8°C° 0 mm 5 mps 746 mmHg 46%
    21:00 +8°C° 0 mm 5 mps 746 mmHg 47%
    22:00 +8°C° 0 mm 5 mps 746 mmHg 47%
    23:00 +7°C° 0 mm 5 mps 746 mmHg 47%

    Tomorrow, 20 October, Saturday

    Time Temperature Precipitation Wind Pressure Humidity
    00:00 +7°C° 0 mm 5 mps 746 mmHg 47%
    01:00 +6°C° 0 mm 5 mps 746 mmHg 47%
    02:00 +6°C° 0 mm 5 mps 746 mmHg 47%
    03:00 +6°C° 0 mm 5 mps 746 mmHg 47%
    04:00 +6°C° 0 mm 5 mps 746 mmHg 47%
    05:00 +5°C° 0 mm 5 mps 746 mmHg 48%
    06:00 +5°C° 0 mm 5 mps 746 mmHg 48%
    07:00 +5°C° 0 mm 5 mps 746 mmHg 48%
    08:00 +7°C° 0 mm 5 mps 745 mmHg 43%
    09:00 +8°C° 0 mm 6 mps 745 mmHg 37%
    10:00 +10°C° 0 mm 6 mps 745 mmHg 32%
    11:00 +11°C° 0 mm 7 mps 745 mmHg 29%
    12:00 +12°C° 0 mm 7 mps 745 mmHg 26%
    13:00 +14°C° 0 mm 7 mps 745 mmHg 23%
    14:00 +14°C° 0 mm 7 mps 744 mmHg 23%
    15:00 +14°C° 0 mm 7 mps 744 mmHg 24%
    16:00 +14°C° 0 mm 6 mps 744 mmHg 24%
    17:00 +13°C° 0 mm 6 mps 744 mmHg 26%
    18:00 +10°C° 0 mm 5 mps 743 mmHg 29%
    19:00 +9°C° 0 mm 5 mps 743 mmHg 32%
    20:00 +10°C° 0 mm 4 mps 743 mmHg 35%
    21:00 +8°C° 0 mm 4 mps 743 mmHg 39%
    22:00 +8°C° 0 mm 4 mps 743 mmHg 43%
    23:00 +8°C° 0 mm 4 mps 743 mmHg 48%

    Day after tomorrow, 21 October, Sunday

    Time Temperature Precipitation Wind Pressure Humidity
    00:00 +7°C° 0 mm 4 mps 743 mmHg 54%
    01:00 +7°C° 0 mm 4 mps 743 mmHg 59%
    02:00 +7°C° 0 mm 4 mps 743 mmHg 63%
    03:00 +6°C° 0 mm 4 mps 743 mmHg 68%
    04:00 +6°C° 0 mm 4 mps 743 mmHg 72%
    05:00 +7°C° 0 mm 3 mps 743 mmHg 75%
    06:00 +7°C° 0 mm 3 mps 743 mmHg 78%
    07:00 +5°C° 0 mm 3 mps 743 mmHg 82%
    08:00 +8°C° 0 mm 3 mps 744 mmHg 77%
    09:00 +9°C° 0 mm 3 mps 744 mmHg 72%
    10:00 +11°C° 0 mm 3 mps 744 mmHg 67%
    11:00 +12°C° 0 mm 3 mps 744 mmHg 64%
    12:00 +13°C° 0 mm 3 mps 744 mmHg 61%
    13:00 +14°C° 0 mm 3 mps 744 mmHg 59%
    14:00 +13°C° 0 mm 3 mps 744 mmHg 58%
    15:00 +13°C° 0 mm 3 mps 744 mmHg 58%
    16:00 +13°C° 0 mm 3 mps 744 mmHg 58%
    17:00 +12°C° 0 mm 3 mps 745 mmHg 60%
    18:00 +11°C° 0 mm 3 mps 745 mmHg 62%
    19:00 +10°C° 0 mm 2 mps 745 mmHg 65%
    20:00 +9°C° 0 mm 3 mps 745 mmHg 64%
    21:00 +8°C° 0 mm 3 mps 746 mmHg 63%
    22:00 +8°C° 0 mm 3 mps 746 mmHg 62%
    23:00 +7°C° 0 mm 3 mps 746 mmHg 63%

    22 October, Monday

    Time Temperature Precipitation Wind Pressure Humidity
    00:00 +7°C° 0 mm 2 mps 746 mmHg 64%
    01:00 +6°C° 0 mm 2 mps 746 mmHg 65%
    02:00 +5°C° 0 mm 3 mps 746 mmHg 67%
    03:00 +5°C° 0 mm 3 mps 746 mmHg 68%
    04:00 +4°C° 0 mm 3 mps 747 mmHg 69%
    05:00 +4°C° 0 mm 3 mps 747 mmHg 70%
    06:00 +4°C° 0 mm 3 mps 747 mmHg 71%
    07:00 +4°C° 0 mm 3 mps 747 mmHg 72%
    08:00 +5°C° 0 mm 3 mps 747 mmHg 66%
    09:00 +7°C° 0 mm 3 mps 747 mmHg 61%
    10:00 +9°C° 0 mm 3 mps 747 mmHg 56%
    11:00 +9°C° 0 mm 3 mps 747 mmHg 53%
    12:00 +10°C° 0 mm 3 mps 747 mmHg 49%
    13:00 +11°C° 0 mm 3 mps 747 mmHg 46%
    14:00 +11°C° 0 mm 3 mps 747 mmHg 46%
    15:00 +11°C° 0 mm 3 mps 747 mmHg 46%
    16:00 +11°C° 0 mm 3 mps 747 mmHg 46%
    17:00 +10°C° 0 mm 3 mps 747 mmHg 49%
    18:00 +8°C° 0 mm 4 mps 747 mmHg 53%
    19:00 +7°C° 0 mm 4 mps 747 mmHg 57%
    20:00 +6°C° 0 mm 4 mps 747 mmHg 59%
    21:00 +6°C° 0 mm 4 mps 747 mmHg 60%
    22:00 +5°C° 0 mm 4 mps 747 mmHg 62%
    23:00 +5°C° 0 mm 4 mps 748 mmHg 63%

    23 October, Tuesday

    Time Temperature Precipitation Wind Pressure Humidity
    00:00 +4°C° 0 mm 4 mps 748 mmHg 64%
    01:00 +4°C° 0 mm 4 mps 748 mmHg 65%
    02:00 +4°C° 0 mm 4 mps 748 mmHg 66%
    03:00 +2°C° 0 mm 5 mps 748 mmHg 66%
    04:00 +2°C° 0 mm 5 mps 748 mmHg 67%
    05:00 +2°C° 0 mm 5 mps 748 mmHg 66%
    06:00 +2°C° 0 mm 5 mps 748 mmHg 66%
    07:00 +1°C° 0 mm 5 mps 748 mmHg 66%
    08:00 +3°C° 0 mm 5 mps 748 mmHg 61%
    09:00 +5°C° 0 mm 5 mps 749 mmHg 56%
    10:00 +5°C° 0 mm 6 mps 749 mmHg 51%
    11:00 +7°C° 0 mm 5 mps 749 mmHg 48%
    12:00 +9°C° 0 mm 5 mps 749 mmHg 46%
    13:00 +10°C° 0 mm 5 mps 749 mmHg 43%
    14:00 +10°C° 0 mm 5 mps 749 mmHg 43%
    15:00 +10°C° 0 mm 5 mps 748 mmHg 44%
    16:00 +10°C° 0 mm 5 mps 748 mmHg 44%
    17:00 +9°C° 0 mm 5 mps 748 mmHg 47%
    18:00 +8°C° 0 mm 5 mps 748 mmHg 50%
    19:00 +7°C° 0 mm 4 mps 748 mmHg 53%
    20:00 +7°C° 0 mm 5 mps 748 mmHg 54%
    21:00 +6°C° 0 mm 5 mps 748 mmHg 54%
    22:00 +6°C° 0 mm 5 mps 748 mmHg 54%
    23:00 +5°C° 0 mm 5 mps 748 mmHg 54%

    24 October, Wednesday

    Time Temperature Precipitation Wind Pressure Humidity
    00:00 +5°C° 0 mm 5 mps 748 mmHg 53%
    01:00 +5°C° 0 mm 5 mps 748 mmHg 53%
    02:00 +3°C° 0 mm 5 mps 748 mmHg 52%
    03:00 +4°C° 0 mm 4 mps 748 mmHg 51%
    04:00 +4°C° 0 mm 4 mps 748 mmHg 50%
    05:00 +2°C° 0 mm 5 mps 748 mmHg 50%
    06:00 +2°C° 0 mm 5 mps 748 mmHg 49%
    07:00 +2°C° 0 mm 5 mps 748 mmHg 49%
    08:00 +3°C° 0 mm 5 mps 748 mmHg 44%
    09:00 +4°C° 0 mm 6 mps 747 mmHg 40%
    10:00 +5°C° 0 mm 6 mps 747 mmHg 35%
    11:00 +6°C° 0 mm 7 mps 747 mmHg 32%
    12:00 +9°C° 0 mm 7 mps 746 mmHg 29%
    13:00 +10°C° 0 mm 7 mps 746 mmHg 26%
    14:00 +10°C° 0 mm 7 mps 746 mmHg 26%
    15:00 +10°C° 0 mm 6 mps 745 mmHg 27%
    16:00 +10°C° 0 mm 6 mps 745 mmHg 27%
    17:00 +9°C° 0 mm 6 mps 745 mmHg 31%
    18:00 +8°C° 0 mm 6 mps 744 mmHg 34%
    19:00 +7°C° 0 mm 6 mps 744 mmHg 38%
    20:00 +7°C° 0 mm 6 mps 744 mmHg 39%
    21:00 +7°C° 0 mm 6 mps 744 mmHg 40%
    22:00 +5°C° 0 mm 6 mps 743 mmHg 41%
    23:00 +5°C° 0 mm 6 mps 743 mmHg 40%
    Show more